Regional Weather Roundup
Issued by NWS Spokane, WA

Home | Current Version | Previous Version | Text Only | Print | Product List | Glossary On
Versions: 1 2 3 4 5 6 7 8 9 10 11 12 13 14 15 16 17 18 19 20 21 22 23 24 25 26 27 28 29 30 31 32 33 34 35 36 37 38 39 40 41 42 43 44 45 46 47 48 49 50
000
NZUS01 KOTX 011510
RWROTX
EASTERN WASHINGTON/NORTHERN IDAHO ROUNDUP
NATIONAL WEATHER SERVICE, SPOKANE WA
800 AM PDT WED APR 01 2015

Note: "fair" indicated few or no clouds below 12,000 feet with no
significant weather and/or obstructions to visibility.

...NORTHEAST WASHINGTON AND NORTHERN IDAHO PANHANDLE...

CITY           SKY/WX    TMP DP  RH WIND       PRES   REMARKS
SPOKANE INTL   PTSUNNY   35  31  85 SW12      30.10R WCI  27
SPOKANE DOWNTO MOSUNNY   38  32  79 S6        30.13R
COEUR D ALENE  MOSUNNY   36  30  80 S6        30.13R
DEER PARK      MOSUNNY   34  29  82 SE9       30.10R WCI  27
SANDPOINT      MOSUNNY   36  28  75 SW5       30.08R
BONNERS FERRY  FAIR      37  25  60 SW8       30.02R

...SOUTHEAST WASHINGTON AND SOUTHERN IDAHO PANHANDLE...

CITY           SKY/WX    TMP DP  RH WIND       PRES   REMARKS
WALLA WALLA    CLOUDY    43  32  65 S13       30.23R
PULLMAN/MOSCOW CLOUDY    36  31  82 SW12      30.16R
LEWISTON       CLOUDY    43  31  62 W3        30.18R
LOWELL           N/A     40  38  93 CALM      30.19R

...COLUMBIA BASIN...

CITY           SKY/WX    TMP DP  RH WIND       PRES   REMARKS
EPHRATA        PTSUNNY   48  22  35 W20       30.11R
MOSES LAKE     PTSUNNY   45  29  53 W9        30.14R
TRI CITIES     MOSUNNY   43  34  70 SW13      30.23R
HERMISTON      SUNNY     44  31  60 SW13      30.24R
PENDLETON      SUNNY     42  29  59 SW14      30.22R

...EAST SLOPES CASCADES...

CITY           SKY/WX    TMP DP  RH WIND       PRES   REMARKS
THE DALLES     SUNNY     45  37  73 N5        30.29R
YAKIMA         MOSUNNY   38  28  67 VRB5      30.22R
ELLENSBURG     CLOUDY    39  32  76 NW7       30.18R
WENATCHEE      MOSUNNY   39  27  62 NW7       30.16R
OMAK           PTSUNNY   39  24  55 SW5       30.12R

...SOUTHERN BRITISH COLUMBIA...

CITY           SKY/WX    TMP DP  RH WIND       PRES   REMARKS
PENTICTON      PTSUNNY   39  34  81 S3        30.11R
CRANBROOK      PTSUNNY   39  18  41 W10       29.92R

...WESTERN MONTANA...

CITY           SKY/WX    TMP DP  RH WIND       PRES   REMARKS
MISSOULA       CLOUDY    36  23  59 NW7       30.06R

...NEIGHBORING CITIES...

CITY           SKY/WX    TMP DP  RH WIND       PRES   REMARKS
SEATTLE        PTSUNNY   42  37  82 S7        30.28R
CALGARY        PTSUNNY   39   7  26 W16G25    29.69F



USA.gov is the U.S. government's official web portal to all federal, state and local government web resources and services.